Weather History for Butte, MT

Change the Weather History Date:

Friday, November 8, 2013

  Actual Average Record
Temperature  
Mean Temperature 33 °F 32 °F  
Max Temperature 40 °F 44 °F 68 °F (1999)
Min Temperature 26 °F 19 °F -7 °F (1966)
Degree Days  
Heating Degree Days 32 33  
Month to date heating degree days 261 252  
Since 1 July heating degree days 1503 1623  
Cooling Degree Days 0 0  
Month to date cooling degree days 0 0  
Year to date cooling degree days 104 81  
Moisture  
Dew Point 22 °F    
Average Humidity 64    
Maximum Humidity 75    
Minimum Humidity 52    
Precipitation  
Precipitation 0.00 in 0.02 in 0.35 in (1910)
Month to date precipitation 0.10 0.16  
Year to date precipitation 11.00 11.82  
Sea Level Pressure  
Sea Level Pressure 29.99 in    
Wind  
Wind Speed 7 mph (West)    
Max Wind Speed 18 mph    
Max Gust Speed 25 mph    
Visibility 10 miles    
Events      
T = Trace of Precipitation, MM = Missing Value Source: NWS Daily Summary

Daily Weather History Graph

Daily Weather History Graph

Search for Another Location

Airport:

Trip Planner

Search our weather history database for the weather conditions in past years. The results will help you decide how hot, cold, wet, or windy it might be!

Date:

Astronomy

Nov. 08, 2013 Rise Set
Actual Time 7:20 AM MST 5:06 PM MST
Civil Twilight 6:49 AM MST 5:37 PM MST
Nautical Twilight 6:13 AM MST 6:13 PM MST
Astronomical Twilight 5:38 AM MST 6:48 PM MST
Moon 12:19 PM MST (11/8) 10:32 PM MST (11/8)
Length of Visible Light 10h 48m
Length of Day
9h 45m
Waxing Crescent, 34% of the Moon is Illuminated
Nov 8
Waxing Crescent
Nov 9
First Quarter
Nov 17
Full
Nov 25
Last Quarter
Dec 2
New

Hourly Weather History & Observations

Time (MST) Temp. Windchill Dew Point Humidity Pressure Visibility Wind Dir Wind Speed Gust Speed Precip Events Conditions
12:53 AM 34.0 °F 28.8 °F 19.9 °F 56% 29.83 in 10.0 mi West 5.8 mph - N/A   Mostly Cloudy
1:53 AM 33.1 °F 28.7 °F 21.0 °F 61% 29.84 in 10.0 mi Variable 4.6 mph - N/A   Mostly Cloudy
2:53 AM 32.0 °F 28.7 °F 19.9 °F 61% 29.86 in 10.0 mi West 3.5 mph - N/A   Clear
3:53 AM 33.1 °F 27.7 °F 21.9 °F 64% 29.86 in 10.0 mi WNW 5.8 mph - N/A   Overcast
4:53 AM 33.1 °F 24.9 °F 23.0 °F 66% 29.87 in 10.0 mi West 10.4 mph 18.4 mph N/A   Overcast
5:53 AM 35.1 °F 29.3 °F 21.9 °F 59% 29.88 in 10.0 mi Variable 6.9 mph 19.6 mph N/A   Overcast
6:53 AM 33.1 °F - 24.1 °F 70% 29.91 in 10.0 mi Calm Calm - N/A   Overcast
7:53 AM 34.0 °F 28.0 °F 21.9 °F 61% 29.93 in 10.0 mi WSW 6.9 mph - N/A   Overcast
8:53 AM 35.1 °F 30.1 °F 23.0 °F 61% 29.94 in 10.0 mi Variable 5.8 mph - N/A   Overcast
9:53 AM 36.0 °F 28.0 °F 23.0 °F 59% 29.99 in 10.0 mi West 11.5 mph 18.4 mph N/A   Overcast
10:53 AM 37.0 °F 28.9 °F 23.0 °F 57% 29.99 in 10.0 mi WSW 12.7 mph - N/A   Overcast
11:53 AM 37.0 °F 29.3 °F 24.1 °F 59% 30.00 in 10.0 mi West 11.5 mph 19.6 mph N/A   Overcast
12:53 PM 37.9 °F 29.2 °F 24.1 °F 57% 29.98 in 10.0 mi WSW 15.0 mph 23.0 mph N/A   Overcast
1:53 PM 39.9 °F 32.1 °F 25.0 °F 55% 29.97 in 10.0 mi WSW 13.8 mph 23.0 mph N/A   Overcast
2:53 PM 39.9 °F 31.8 °F 24.1 °F 53% 29.99 in 10.0 mi WSW 15.0 mph 20.7 mph N/A   Overcast
3:53 PM 37.9 °F 30.0 °F 21.9 °F 53% 30.00 in 10.0 mi West 12.7 mph 20.7 mph N/A   Overcast
4:53 PM 37.0 °F 31.6 °F 23.0 °F 57% 30.02 in 10.0 mi West 6.9 mph - N/A   Mostly Cloudy
5:53 PM 36.0 °F 30.3 °F 21.9 °F 57% 30.04 in 10.0 mi WNW 6.9 mph - N/A   Partly Cloudy
6:53 PM 34.0 °F 28.8 °F 24.1 °F 67% 30.08 in 10.0 mi West 5.8 mph - N/A   Partly Cloudy
7:53 PM 33.1 °F 30.0 °F 23.0 °F 66% 30.10 in 10.0 mi WNW 3.5 mph - N/A   Partly Cloudy
8:53 PM 30.0 °F 26.5 °F 21.9 °F 72% 30.12 in 10.0 mi West 3.5 mph - N/A   Clear
9:53 PM 28.0 °F - 19.9 °F 72% 30.15 in 10.0 mi Calm Calm - N/A   Clear
10:53 PM 28.0 °F 24.2 °F 21.0 °F 75% 30.16 in 10.0 mi NNE 3.5 mph - N/A   Mostly Cloudy
11:53 PM 28.9 °F - 21.9 °F 75% 30.18 in 10.0 mi Calm Calm - N/A   Overcast